User: anonymous   Login
Location: Bats
(43.6587°N, 0.4584°W)
Time: 23:49:33
(UTC+00:00)
Language:

Cosmos 1470 Rocket - Orbit

View from above orbital plane
View from above orbital plane
View from above satellite
View from above satellite

Ground track
Ground track

The orbit is defined by the following mean orbital elements,

1 14148U          26074.61256808 +.00000000 +00000-0 +45180-4 0 00008
2 14148  82.5204 155.7654 0019473 234.9071 125.0320 14.85674760    05
Epoch (UTC): 15 March 2026 14:42:05
Eccentricity: 0.0019473
inclination: 82.5204°
perigee height: 598 km
apogee height: 625 km
right ascension of ascending node: 155.7654°
argument of perigee: 234.9071°
revolutions per day: 14.85674760
mean anomaly at epoch: 125.0320°

The dashed part of the orbit path shows where the satellite is in the earth's shadow,  

DLR